Flag for South Africa Weather past 2 weeks in Bloemfontein, South Africa

Now
77 °F

Passing clouds.


Feels Like: 78 °F
Forecast: 55 / 79 °F
Wind: 6 mph from East

Location: Bloemfontein Airport

Current Time: Mar 30, 2015 at 1:33:00 PM

Latest Report: Mar 30, 2015 at 1:00 PM


Visibility: N/A

Pressure: 30.15 "Hg

Humidity: 36%

Dew point: 48 °F

Location of BloemfonteinLocation

Historic Weather in Bloemfontein — Graph

°F

Bloemfontein temperature yesterday

Maximum temperature yesterday: 79 °F (at 2:00 PM)
Minimum temperature yesterday: 50 °F (at 3:00 AM)
Average temperature yesterday: 63 °F

Past Weeks' High & Low Weather Summary

 TemperatureHumidityPressure
High88 °F (Mar 15, 4:00 PM)94% (Mar 19, 6:00 AM)30.30 "Hg (Mar 19, 6:00 AM)
Low48 °F (Mar 28, 5:00 AM)13% (Mar 16, 6:00 PM)29.95 "Hg (Mar 18, 4:00 PM)
Average66 °F64%30.15 "Hg
* Reported Mar 15 12:00 Noon — Mar 30 12:00 Noon, Bloemfontein, Weather by CustomWeather, © 2015

Note: Actual official high and low records may vary slightly from our data, if they occured in-between our weather recording intervals... More about our weather records

Advertising

Bloemfontein weather history for previous 24 hours

 ConditionsComfort  
Time TempWeatherWind HumidityBarometerVisibility
12:00 PM
Mon, Mar 30
77 °FPassing clouds.3 mph39%30.18 "HgN/A
11:00 AM75 °FSunny.5 mph44%30.21 "Hg10 mi
10:00 AM68 °FPassing clouds.6 mph60%30.21 "HgN/A
9:00 AM63 °FPassing clouds.3 mph68%30.21 "HgN/A
8:00 AM59 °FSunny.No wind72%30.21 "Hg10 mi
7:00 AM55 °FSunny.2 mph77%30.18 "Hg10 mi
6:00 AM54 °FSunny.2 mph82%30.15 "Hg10 mi
5:00 AM52 °FClear.No wind82%30.15 "Hg10 mi
4:00 AM54 °FCool.3 mph82%30.12 "HgN/A
3:00 AM54 °FCool.2 mph77%30.12 "HgN/A
2:00 AM54 °FCool.1 mph77%30.12 "HgN/A
1:00 AM55 °FCool.6 mph72%30.12 "HgN/A
12:00 AM55 °FCool.2 mph72%30.12 "HgN/A
11:00 PM
Sun, Mar 29
57 °FCool.No wind67%30.12 "HgN/A
10:00 PM59 °FCool.3 mph63%30.12 "HgN/A
9:00 PM63 °FMild.3 mph56%30.09 "HgN/A
8:00 PM63 °FClear.2 mph52%30.09 "Hg10 mi
7:00 PM70 °FClear.6 mph38%30.07 "Hg10 mi
6:00 PM75 °FClear.7 mph29%30.07 "Hg10 mi
5:00 PM77 °FPassing clouds.10 mph19%30.09 "HgN/A
4:00 PM79 °FScattered clouds.8 mph28%30.07 "HgN/A
3:00 PM77 °FScattered clouds.8 mph30%30.09 "HgN/A
2:00 PM79 °FPassing clouds.5 mph24%30.09 "HgN/A
1:00 PM77 °FScattered clouds.9 mph32%30.09 "HgN/A
Weather by CustomWeather, © 2015

See weather overviewHow to use our weather pages